Home > Weather > Stade > Past weeks

Flag for Germany Weather for the Past 2 Weeks in Stade, Lower Saxony, Germany

Now
50 °F

Passing clouds.


Feels Like: 48 °F
Forecast: 42 / 57 °F
Wind: 6 mph from Southwest

Location: Hamburg-Finkenwerder

Current Time: May 3, 2016 at 7:00:13 AM

Latest Report: May 3, 2016 at 5:50 AM


Visibility: N/A

Pressure: 29.98 "Hg

Humidity: 88%

Dew Point: 46 °F

Location of StadeLocation

Historic Weather in Stade — Graph

°F

Stade Temperature Yesterday

Maximum temperature yesterday: 68 °F (at 2:50 PM)
Minimum temperature yesterday: 39 °F (at 6:50 AM)
Average temperature yesterday: 60 °F

High & Low Weather Summary for the Past Weeks

 TemperatureHumidityPressure
High68 °F (May 2, 2:50 PM)100% (Apr 18, 5:50 AM)30.42 "Hg (Apr 18, 5:50 AM)
Low30 °F (Apr 25, 5:50 AM)33% (May 2, 5:20 PM)29.36 "Hg (Apr 26, 2:04 PM)
Average46 °F80%29.96 "Hg
* Reported Apr 18 5:50 AM — May 2 7:50 PM, Stade, Weather by CustomWeather, © 2016

Note: Actual official high and low records may vary slightly from our data, if they occured in-between our weather recording intervals... More about our weather records

Advertising

Stade Weather History for the Previous 24 Hours

Scroll right to see more
 ConditionsComfort  
Time TempWeatherWind HumidityBarometerVisibility
7:50 PM
Mon, May 2
63 °FPassing clouds.5 mph45%30.09 "HgN/A
7:20 PM64 °FPassing clouds.5 mph43%30.09 "HgN/A
6:50 PM66 °FPassing clouds.6 mph37%30.09 "HgN/A
6:20 PM68 °FPassing clouds.6 mph38%30.09 "HgN/A
5:50 PM68 °FSunny.1 mph33%30.12 "Hg10 mi
5:20 PM68 °FSunny.2 mph33%30.12 "Hg10 mi
4:50 PM66 °FSunny.2 mph40%30.15 "Hg10 mi
4:20 PM66 °FSunny.3 mph40%30.15 "Hg10 mi
3:50 PM68 °FSunny.2 mph40%30.15 "Hg10 mi
3:20 PM66 °FSunny.3 mph37%30.18 "Hg10 mi
2:50 PM68 °FSunny.3 mph38%30.18 "Hg10 mi
2:20 PM66 °FSunny.6 mph43%30.21 "Hg10 mi
1:50 PM66 °FSunny.5 mph37%30.21 "Hg10 mi
1:20 PM64 °FSunny.5 mph46%30.21 "Hg10 mi
12:50 PM64 °FPassing clouds.5 mph43%30.24 "HgN/A
12:20 PM63 °FSunny.3 mph45%30.24 "Hg10 mi
11:50 AM63 °FSunny.3 mph45%30.24 "Hg10 mi
10:50 AM59 °FSunny.3 mph51%30.27 "Hg10 mi
10:20 AM55 °FSunny.3 mph72%30.27 "Hg10 mi
9:50 AM54 °FSunny.1 mph82%30.27 "Hg10 mi
8:50 AM52 °FSunny.1 mph82%30.30 "Hg10 mi
8:20 AM50 °FSunny.3 mph88%30.30 "Hg10 mi
Weather by CustomWeather, © 2016

See weather overviewHow to use our weather pages